Time,TemperatureF,DewpointF,PressureIn,WindDirection,WindDirectionDegrees,WindSpeedMPH,WindSpeedGustMPH,Humidity,HourlyPrecipIn,Conditions,Clouds,dailyrainin,SoftwareType,DateUTC
2013-09-08 00:01:00,73.9,72.7,29.91,NNW,329,3.5,3.5,96,0.00,RA,,0.00,WeatherDisplay:10.37,2013-09-08 04:01:00,
2013-09-08 00:06:00,73.9,72.7,29.91,NNW,332,2.3,2.3,96,0.00,RA,,0.00,WeatherDisplay:10.37,2013-09-08 04:06:00,
2013-09-08 00:11:00,73.9,72.7,29.91,NW,317,4.6,4.6,96,0.00,CLR,,0.00,WeatherDisplay:10.37,2013-09-08 04:11:00,
2013-09-08 00:16:00,73.9,72.7,29.91,NNW,331,3.5,3.5,96,0.00,CLR,,0.00,WeatherDisplay:10.37,2013-09-08 04:16:00,
2013-09-08 00:21:00,73.8,72.6,29.90,NNW,346,3.5,3.5,96,0.00,CLR,,0.00,WeatherDisplay:10.37,2013-09-08 04:21:00,
2013-09-08 00:26:00,73.8,72.3,29.90,NNW,328,0.0,0.3,95,0.00,CLR,,0.00,WeatherDisplay:10.37,2013-09-08 04:26:00,
2013-09-08 00:31:00,73.8,72.3,29.90,NNW,336,3.5,3.5,95,0.00,CLR,,0.00,WeatherDisplay:10.37,2013-09-08 04:31:00,
2013-09-08 00:36:00,73.7,72.2,29.89,NNW,336,0.0,0.0,95,0.00,CLR,,0.00,WeatherDisplay:10.37,2013-09-08 04:36:00,
2013-09-08 00:41:00,73.7,72.2,29.89,NNW,336,1.2,1.2,95,0.00,CLR,,0.00,WeatherDisplay:10.37,2013-09-08 04:41:00,
2013-09-08 00:46:00,73.6,72.1,29.89,NNW,336,1.0,0.0,95,0.00,CLR,,0.00,WeatherDisplay:10.37,2013-09-08 04:46:00,
2013-09-08 00:51:00,73.7,72.2,29.89,NNW,327,3.5,3.5,95,0.00,CLR,,0.00,WeatherDisplay:10.37,2013-09-08 04:51:00,
2013-09-08 00:56:00,73.7,72.5,29.89,North,350,3.5,3.5,96,0.00,CLR,,0.00,WeatherDisplay:10.37,2013-09-08 04:56:00,
2013-09-08 01:01:00,73.7,72.2,29.89,NNW,344,4.6,4.6,95,0.00,CLR,,0.00,WeatherDisplay:10.37,2013-09-08 05:01:00,
2013-09-08 01:06:00,73.7,72.2,29.89,NNW,338,2.3,2.3,95,0.00,CLR,,0.00,WeatherDisplay:10.37,2013-09-08 05:06:00,
2013-09-08 01:11:00,73.7,72.2,29.89,NW,325,3.5,3.5,95,0.00,CLR,,0.00,WeatherDisplay:10.37,2013-09-08 05:11:00,
2013-09-08 01:16:00,73.7,72.2,29.90,NNW,347,2.3,2.3,95,0.00,CLR,,0.00,WeatherDisplay:10.37,2013-09-08 05:16:00,
2013-09-08 01:21:00,73.7,72.2,29.90,NNW,348,3.5,3.5,95,0.00,CLR,,0.00,WeatherDisplay:10.37,2013-09-08 05:21:00,
2013-09-08 01:26:00,73.7,72.2,29.90,North,355,3.5,3.5,95,0.00,CLR,,0.00,WeatherDisplay:10.37,2013-09-08 05:26:00,
2013-09-08 01:31:00,73.7,71.9,29.90,North,5,3.5,3.5,94,0.00,CLR,,0.00,WeatherDisplay:10.37,2013-09-08 05:31:00,
2013-09-08 01:36:00,73.6,71.8,29.90,NNW,341,4.0,4.0,94,0.00,CLR,,0.00,WeatherDisplay:10.37,2013-09-08 05:36:00,
2013-09-08 01:41:00,73.7,71.9,29.90,North,5,5.8,5.8,94,0.00,CLR,,0.00,WeatherDisplay:10.37,2013-09-08 05:41:00,
2013-09-08 01:46:00,73.7,71.9,29.90,NW,326,3.5,3.5,94,0.00,CLR,,0.00,WeatherDisplay:10.37,2013-09-08 05:46:00,
2013-09-08 01:51:00,73.7,71.9,29.90,NW,325,4.6,4.6,94,0.00,CLR,,0.00,WeatherDisplay:10.37,2013-09-08 05:51:00,
2013-09-08 01:56:00,73.7,71.5,29.90,NNW,347,3.5,3.5,93,0.00,CLR,,0.00,WeatherDisplay:10.37,2013-09-08 05:56:00,
2013-09-08 02:01:00,73.8,72.0,29.89,NNW,329,3.5,3.5,94,0.00,CLR,,0.00,WeatherDisplay:10.37,2013-09-08 06:01:00,
2013-09-08 02:06:00,73.9,72.1,29.89,NW,324,2.3,2.3,94,0.00,CLR,,0.00,WeatherDisplay:10.37,2013-09-08 06:06:00,
2013-09-08 02:11:00,73.8,72.0,29.89,NW,326,2.0,2.0,94,0.00,CLR,,0.00,WeatherDisplay:10.37,2013-09-08 06:11:00,
2013-09-08 02:16:00,73.8,72.0,29.89,NNW,344,3.5,3.5,94,0.00,CLR,,0.00,WeatherDisplay:10.37,2013-09-08 06:16:00,
2013-09-08 02:21:00,73.8,72.0,29.88,NNW,339,3.5,3.5,94,0.00,CLR,,0.00,WeatherDisplay:10.37,2013-09-08 06:21:00,
2013-09-08 02:26:00,73.8,72.0,29.88,North,355,1.0,1.0,94,0.00,CLR,,0.00,WeatherDisplay:10.37,2013-09-08 06:26:00,
2013-09-08 02:31:00,73.8,72.0,29.88,North,360,0.0,0.0,94,0.00,CLR,,0.00,WeatherDisplay:10.37,2013-09-08 06:31:00,
2013-09-08 02:36:00,73.7,71.9,29.88,North,360,0.0,0.0,94,0.00,CLR,,0.00,WeatherDisplay:10.37,2013-09-08 06:36:00,
2013-09-08 02:41:00,73.7,71.9,29.88,North,351,1.2,1.2,94,0.00,CLR,,0.00,WeatherDisplay:10.37,2013-09-08 06:41:00,
2013-09-08 02:46:00,73.7,71.9,29.88,North,351,2.3,2.3,94,0.00,CLR,,0.00,WeatherDisplay:10.37,2013-09-08 06:46:00,
2013-09-08 02:51:00,73.6,72.1,29.87,North,350,2.3,2.3,95,0.00,CLR,,0.00,WeatherDisplay:10.37,2013-09-08 06:51:00,
2013-09-08 02:56:00,73.7,72.2,29.87,North,350,1.2,1.2,95,0.00,CLR,,0.00,WeatherDisplay:10.37,2013-09-08 06:56:00,
2013-09-08 03:01:00,73.7,72.2,29.87,North,355,0.0,0.0,95,0.00,CLR,,0.00,WeatherDisplay:10.37,2013-09-08 07:01:00,
2013-09-08 03:06:00,73.7,72.2,29.87,North,355,1.2,0.0,95,0.00,CLR,,0.00,WeatherDisplay:10.37,2013-09-08 07:06:00,
2013-09-08 03:11:00,73.7,72.2,29.87,NNW,348,1.2,1.2,95,0.00,CLR,,0.00,WeatherDisplay:10.37,2013-09-08 07:11:00,
2013-09-08 03:16:00,73.6,72.1,29.87,NNW,344,3.0,3.0,95,0.00,CLR,,0.00,WeatherDisplay:10.37,2013-09-08 07:16:00,
2013-09-08 03:21:00,73.7,72.2,29.86,NNW,342,2.3,2.3,95,0.00,CLR,,0.00,WeatherDisplay:10.37,2013-09-08 07:21:00,
2013-09-08 03:26:00,73.7,72.2,29.86,NNW,345,3.5,3.5,95,0.00,CLR,,0.00,WeatherDisplay:10.37,2013-09-08 07:26:00,
2013-09-08 03:31:00,73.7,72.2,29.86,NNW,333,2.3,2.3,95,0.00,CLR,,0.00,WeatherDisplay:10.37,2013-09-08 07:31:00,
2013-09-08 03:36:00,73.6,72.1,29.86,NNW,333,2.3,2.3,95,0.00,CLR,,0.00,WeatherDisplay:10.37,2013-09-08 07:36:00,
2013-09-08 03:41:00,73.7,72.2,29.86,NNW,337,2.3,2.3,95,0.00,CLR,,0.00,WeatherDisplay:10.37,2013-09-08 07:41:00,
2013-09-08 03:46:00,73.7,72.2,29.86,NNW,337,3.5,3.5,95,0.00,CLR,,0.00,WeatherDisplay:10.37,2013-09-08 07:46:00,
2013-09-08 03:51:00,73.8,72.6,29.86,NNW,327,3.5,3.5,96,0.00,CLR,,0.00,WeatherDisplay:10.37,2013-09-08 07:51:00,
2013-09-08 03:56:00,73.9,72.7,29.86,NNW,331,3.5,3.5,96,0.00,CLR,,0.00,WeatherDisplay:10.37,2013-09-08 07:56:00,
2013-09-08 04:01:00,73.9,72.7,29.86,NNW,340,3.5,3.5,96,0.00,CLR,,0.00,WeatherDisplay:10.37,2013-09-08 08:01:00,
2013-09-08 04:06:00,73.8,72.3,29.86,NW,323,3.5,3.5,95,0.00,CLR,,0.00,WeatherDisplay:10.37,2013-09-08 08:06:00,
2013-09-08 04:11:00,73.7,72.2,29.86,NNW,336,4.6,4.6,95,0.00,CLR,,0.00,WeatherDisplay:10.37,2013-09-08 08:11:00,
2013-09-08 04:16:00,73.7,72.2,29.86,NNW,329,3.5,3.5,95,0.00,CLR,,0.00,WeatherDisplay:10.37,2013-09-08 08:16:00,
2013-09-08 04:21:00,73.7,72.2,29.86,NW,326,3.5,3.5,95,0.00,CLR,,0.00,WeatherDisplay:10.37,2013-09-08 08:21:00,
2013-09-08 04:26:00,73.7,72.2,29.86,NW,316,2.3,2.3,95,0.00,CLR,,0.00,WeatherDisplay:10.37,2013-09-08 08:26:00,
2013-09-08 04:31:00,73.7,72.2,29.86,NW,314,4.6,4.6,95,0.00,CLR,,0.00,WeatherDisplay:10.37,2013-09-08 08:31:00,
2013-09-08 04:36:00,73.7,72.2,29.86,NW,325,3.5,3.5,95,0.00,CLR,,0.00,WeatherDisplay:10.37,2013-09-08 08:36:00,
2013-09-08 04:41:00,73.6,72.1,29.86,NW,325,2.3,2.3,95,0.00,CLR,,0.00,WeatherDisplay:10.37,2013-09-08 08:41:00,
2013-09-08 04:46:00,73.6,72.1,29.86,NW,320,2.3,2.3,95,0.00,CLR,,0.00,WeatherDisplay:10.37,2013-09-08 08:46:00,
2013-09-08 04:51:00,73.6,72.1,29.86,NW,325,3.5,3.5,95,0.00,CLR,,0.00,WeatherDisplay:10.37,2013-09-08 08:51:00,
2013-09-08 04:56:00,73.6,72.4,29.86,NW,317,2.3,2.3,96,0.00,CLR,,0.00,WeatherDisplay:10.37,2013-09-08 08:56:00,
2013-09-08 05:01:00,73.6,72.4,29.85,NNW,331,1.2,0.0,96,0.00,CLR,,0.00,WeatherDisplay:10.37,2013-09-08 09:01:00,
2013-09-08 05:06:00,73.6,72.4,29.85,NW,326,3.5,3.5,96,0.00,CLR,,0.00,WeatherDisplay:10.37,2013-09-08 09:06:00,
2013-09-08 05:11:00,73.6,72.4,29.85,NNW,340,3.5,3.5,96,0.00,CLR,,0.00,WeatherDisplay:10.37,2013-09-08 09:11:00,
2013-09-08 05:16:00,73.6,72.4,29.85,NNW,329,3.5,3.5,96,0.00,CLR,,0.00,WeatherDisplay:10.37,2013-09-08 09:16:00,
2013-09-08 05:21:00,73.6,72.4,29.86,NNW,329,1.2,1.2,96,0.00,CLR,,0.00,WeatherDisplay:10.37,2013-09-08 09:21:00,
2013-09-08 05:26:00,73.7,72.5,29.85,NNW,327,2.3,2.3,96,0.00,CLR,,0.00,WeatherDisplay:10.37,2013-09-08 09:26:00,
2013-09-08 05:31:00,73.7,72.5,29.85,NNW,327,1.2,1.2,96,0.00,CLR,,0.00,WeatherDisplay:10.37,2013-09-08 09:31:00,
2013-09-08 05:36:00,73.7,72.5,29.85,NNW,345,1.2,0.0,96,0.00,CLR,,0.00,WeatherDisplay:10.37,2013-09-08 09:36:00,
2013-09-08 05:41:00,73.7,72.5,29.85,NNW,345,0.0,0.3,96,0.00,CLR,,0.00,WeatherDisplay:10.37,2013-09-08 09:41:00,
2013-09-08 05:46:00,73.7,72.5,29.86,NNW,333,2.3,2.3,96,0.00,CLR,,0.00,WeatherDisplay:10.37,2013-09-08 09:46:00,
2013-09-08 05:51:00,73.6,72.4,29.86,NW,309,3.5,3.5,96,0.00,CLR,,0.00,WeatherDisplay:10.37,2013-09-08 09:51:00,
2013-09-08 05:56:00,73.5,72.3,29.86,NW,324,3.5,3.5,96,0.00,CLR,,0.00,WeatherDisplay:10.37,2013-09-08 09:56:00,
2013-09-08 06:01:00,73.5,72.3,29.86,NW,321,1.2,1.2,96,0.00,CLR,,0.00,WeatherDisplay:10.37,2013-09-08 10:01:00,
2013-09-08 06:06:00,73.5,72.3,29.86,NW,325,2.3,2.3,96,0.00,CLR,,0.00,WeatherDisplay:10.37,2013-09-08 10:06:00,
2013-09-08 06:11:00,73.4,72.2,29.86,WNW,299,1.2,1.2,96,0.00,CLR,,0.00,WeatherDisplay:10.37,2013-09-08 10:11:00,
2013-09-08 06:16:00,73.3,72.1,29.87,WNW,299,0.0,0.0,96,0.00,CLR,,0.00,WeatherDisplay:10.37,2013-09-08 10:16:00,
2013-09-08 06:21:00,73.3,72.1,29.87,NW,321,0.0,0.2,96,0.00,CLR,,0.00,WeatherDisplay:10.37,2013-09-08 10:21:00,
2013-09-08 06:26:00,73.3,72.1,29.87,NW,321,0.0,0.0,96,0.00,CLR,,0.00,WeatherDisplay:10.37,2013-09-08 10:26:00,
2013-09-08 06:31:00,73.2,72.0,29.87,NW,321,1.2,1.2,96,0.00,CLR,,0.00,WeatherDisplay:10.37,2013-09-08 10:31:00,
2013-09-08 06:36:00,73.2,72.3,29.87,NW,321,1.2,1.2,97,0.00,CLR,,0.00,WeatherDisplay:10.37,2013-09-08 10:36:00,
2013-09-08 06:41:00,73.2,72.3,29.87,NNW,331,2.3,2.3,97,0.00,CLR,,0.00,WeatherDisplay:10.37,2013-09-08 10:41:00,
2013-09-08 06:46:00,73.2,72.3,29.87,NNW,331,1.2,1.2,97,0.00,CLR,,0.00,WeatherDisplay:10.37,2013-09-08 10:46:00,
2013-09-08 06:51:00,73.2,72.3,29.86,NNW,331,0.0,0.0,97,0.00,CLR,,0.00,WeatherDisplay:10.37,2013-09-08 10:51:00,
2013-09-08 06:56:00,73.1,72.2,29.86,NNW,331,2.3,0.0,97,0.00,CLR,,0.00,WeatherDisplay:10.37,2013-09-08 10:56:00,
2013-09-08 07:01:00,73.1,72.2,29.86,NNW,331,0.0,0.0,97,0.00,CLR,,0.00,WeatherDisplay:10.37,2013-09-08 11:01:00,
2013-09-08 07:06:00,73.1,72.2,29.87,NNW,331,1.2,0.0,97,0.00,CLR,,0.00,WeatherDisplay:10.37,2013-09-08 11:06:00,
2013-09-08 07:11:00,73.1,72.2,29.87,NNW,331,0.0,0.0,97,0.00,CLR,,0.00,WeatherDisplay:10.37,2013-09-08 11:11:00,
2013-09-08 07:16:00,73.1,72.2,29.87,NNW,331,0.0,0.0,97,0.00,CLR,,0.00,WeatherDisplay:10.37,2013-09-08 11:16:00,
2013-09-08 07:21:00,73.2,72.3,29.87,NNW,331,0.0,0.0,97,0.00,CLR,,0.00,WeatherDisplay:10.37,2013-09-08 11:21:00,
2013-09-08 07:26:00,73.3,72.4,29.87,NNW,331,0.0,0.0,97,0.00,CLR,,0.00,WeatherDisplay:10.37,2013-09-08 11:26:00,
2013-09-08 07:31:00,73.5,72.6,29.88,NNW,331,0.0,0.0,97,0.00,CLR,,0.00,WeatherDisplay:10.37,2013-09-08 11:31:00,
2013-09-08 07:36:00,73.7,72.8,29.88,NNW,331,0.0,0.0,97,0.00,CLR,,0.00,WeatherDisplay:10.37,2013-09-08 11:36:00,
2013-09-08 07:41:00,73.8,72.9,29.88,WNW,292,2.3,2.3,97,0.00,CLR,,0.00,WeatherDisplay:10.37,2013-09-08 11:41:00,
2013-09-08 07:46:00,74.1,73.2,29.88,NW,312,0.0,0.0,97,0.00,CLR,,0.00,WeatherDisplay:10.37,2013-09-08 11:46:00,
2013-09-08 07:51:00,74.4,73.5,29.88,NW,308,4.0,4.0,97,0.00,CLR,,0.00,WeatherDisplay:10.37,2013-09-08 11:51:00,
2013-09-08 07:56:00,74.6,73.7,29.88,NW,321,3.0,3.0,97,0.00,CLR,,0.00,WeatherDisplay:10.37,2013-09-08 11:56:00,
2013-09-08 08:01:00,74.7,73.5,29.88,NW,309,3.5,3.5,96,0.00,CLR,,0.00,WeatherDisplay:10.37,2013-09-08 12:01:00,
2013-09-08 08:06:00,75.0,73.8,29.88,NW,309,1.2,1.2,96,0.00,CLR,,0.00,WeatherDisplay:10.37,2013-09-08 12:06:00,
2013-09-08 08:11:00,75.4,73.9,29.89,NW,313,3.5,3.5,95,0.00,CLR,,0.00,WeatherDisplay:10.37,2013-09-08 12:11:00,
2013-09-08 08:16:00,75.9,74.0,29.89,NW,307,3.5,3.5,94,0.00,CLR,,0.00,WeatherDisplay:10.37,2013-09-08 12:16:00,
2013-09-08 08:21:00,76.4,74.5,29.89,NW,317,1.2,1.2,94,0.00,CLR,,0.00,WeatherDisplay:10.37,2013-09-08 12:21:00,
2013-09-08 08:26:00,76.9,74.4,29.89,NW,309,1.2,1.2,92,0.00,CLR,,0.00,WeatherDisplay:10.37,2013-09-08 12:26:00,
2013-09-08 08:31:00,77.4,74.9,29.89,NW,308,2.0,2.0,92,0.00,CLR,,0.00,WeatherDisplay:10.37,2013-09-08 12:31:00,
2013-09-08 08:36:00,78.0,74.8,29.89,NW,308,0.0,0.0,90,0.00,CLR,,0.00,WeatherDisplay:10.37,2013-09-08 12:36:00,
2013-09-08 08:41:00,78.7,75.2,29.90,NNW,327,1.2,1.2,89,0.00,CLR,,0.00,WeatherDisplay:10.37,2013-09-08 12:41:00,
2013-09-08 08:46:00,79.2,75.3,29.90,NNW,327,3.0,3.0,88,0.00,CLR,,0.00,WeatherDisplay:10.37,2013-09-08 12:46:00,
2013-09-08 08:51:00,79.8,75.6,29.90,North,5,2.3,2.3,87,0.00,CLR,,0.00,WeatherDisplay:10.37,2013-09-08 12:51:00,
2013-09-08 08:56:00,80.5,75.9,29.90,NNE,24,1.2,1.2,86,0.00,CLR,,0.00,WeatherDisplay:10.37,2013-09-08 12:56:00,
2013-09-08 09:01:00,81.1,75.8,29.90,NE,54,3.5,3.5,84,0.00,CLR,,0.00,WeatherDisplay:10.37,2013-09-08 13:01:00,
2013-09-08 09:06:00,81.7,76.4,29.90,North,5,5.0,5.0,84,0.00,CLR,,0.00,WeatherDisplay:10.37,2013-09-08 13:06:00,
2013-09-08 09:11:00,82.1,76.1,29.90,NE,43,3.5,3.5,82,0.00,CLR,,0.00,WeatherDisplay:10.37,2013-09-08 13:11:00,
2013-09-08 09:16:00,82.6,76.5,29.90,North,350,4.0,4.0,82,0.00,CLR,,0.00,WeatherDisplay:10.37,2013-09-08 13:16:00,
2013-09-08 09:21:00,83.0,76.2,29.90,North,360,4.6,4.6,80,0.01,RA,,0.01,WeatherDisplay:10.37,2013-09-08 13:21:00,
2013-09-08 09:26:00,83.3,76.5,29.91,NE,42,3.5,3.5,80,0.01,RA,,0.01,WeatherDisplay:10.37,2013-09-08 13:26:00,
2013-09-08 09:31:00,83.4,75.8,29.90,NE,36,4.6,4.6,78,0.01,CLR,,0.01,WeatherDisplay:10.37,2013-09-08 13:31:00,
2013-09-08 09:36:00,83.4,76.6,29.91,NE,56,5.0,5.0,80,0.01,CLR,,0.01,WeatherDisplay:10.37,2013-09-08 13:36:00,
2013-09-08 09:41:00,83.1,75.9,29.91,ENE,74,5.8,5.8,79,0.01,CLR,,0.01,WeatherDisplay:10.37,2013-09-08 13:41:00,
2013-09-08 09:46:00,82.6,75.4,29.90,ENE,74,6.0,6.0,79,0.01,CLR,,0.01,WeatherDisplay:10.37,2013-09-08 13:46:00,
2013-09-08 09:51:00,82.3,74.0,29.90,ENE,76,3.5,3.5,76,0.01,CLR,,0.01,WeatherDisplay:10.37,2013-09-08 13:51:00,
2013-09-08 09:56:00,82.5,73.8,29.90,ENE,62,3.5,3.5,75,0.01,CLR,,0.01,WeatherDisplay:10.37,2013-09-08 13:56:00,
2013-09-08 10:01:00,82.7,74.8,29.90,ENE,72,9.2,9.2,77,0.01,CLR,,0.01,WeatherDisplay:10.37,2013-09-08 14:01:00,
2013-09-08 10:06:00,82.8,74.1,29.90,ENE,63,4.6,4.6,75,0.01,CLR,,0.01,WeatherDisplay:10.37,2013-09-08 14:06:00,
2013-09-08 10:11:00,83.2,74.4,29.90,NE,40,2.0,2.0,75,0.01,CLR,,0.01,WeatherDisplay:10.37,2013-09-08 14:11:00,
2013-09-08 10:16:00,84.0,73.2,29.90,NE,49,3.0,3.0,70,0.01,CLR,,0.01,WeatherDisplay:10.37,2013-09-08 14:16:00,
2013-09-08 10:21:00,84.7,73.8,29.90,ENE,76,3.5,3.5,70,0.00,CLR,,0.01,WeatherDisplay:10.37,2013-09-08 14:21:00,
2013-09-08 10:26:00,84.8,73.9,29.90,NE,52,3.5,3.5,70,0.00,CLR,,0.01,WeatherDisplay:10.37,2013-09-08 14:26:00,
2013-09-08 10:31:00,85.1,73.8,29.90,ENE,61,3.5,3.5,69,0.00,CLR,,0.01,WeatherDisplay:10.37,2013-09-08 14:31:00,
2013-09-08 10:36:00,85.5,74.2,29.90,ENE,69,3.5,3.5,69,0.00,CLR,,0.01,WeatherDisplay:10.37,2013-09-08 14:36:00,
2013-09-08 10:41:00,85.7,74.4,29.90,ENE,57,4.6,4.6,69,0.00,CLR,,0.01,WeatherDisplay:10.37,2013-09-08 14:41:00,
2013-09-08 10:46:00,85.9,74.1,29.91,ENE,75,3.5,3.5,68,0.00,CLR,,0.01,WeatherDisplay:10.37,2013-09-08 14:46:00,
2013-09-08 10:51:00,86.1,74.3,29.91,NE,55,3.5,3.5,68,0.00,CLR,,0.01,WeatherDisplay:10.37,2013-09-08 14:51:00,
2013-09-08 10:56:00,86.7,75.3,29.90,North,5,3.5,3.5,69,0.00,CLR,,0.01,WeatherDisplay:10.37,2013-09-08 14:56:00,
2013-09-08 11:01:00,87.5,75.2,29.90,NNE,28,3.5,3.5,67,0.00,CLR,,0.01,WeatherDisplay:10.37,2013-09-08 15:01:00,
2013-09-08 11:06:00,88.2,74.9,29.90,ENE,68,2.3,2.3,65,0.00,CLR,,0.01,WeatherDisplay:10.37,2013-09-08 15:06:00,
2013-09-08 11:11:00,88.2,75.4,29.90,North,360,3.5,3.5,66,0.00,CLR,,0.01,WeatherDisplay:10.37,2013-09-08 15:11:00,
2013-09-08 11:16:00,88.2,74.9,29.89,East,80,3.5,3.5,65,0.00,CLR,,0.01,WeatherDisplay:10.37,2013-09-08 15:16:00,
2013-09-08 11:21:00,87.3,74.1,29.89,ENE,66,6.9,6.9,65,0.00,CLR,,0.01,WeatherDisplay:10.37,2013-09-08 15:21:00,
2013-09-08 11:26:00,87.2,73.5,29.89,ENE,69,4.6,4.6,64,0.00,CLR,,0.01,WeatherDisplay:10.37,2013-09-08 15:26:00,
2013-09-08 11:31:00,87.4,73.7,29.89,NNE,24,5.8,5.8,64,0.00,CLR,,0.01,WeatherDisplay:10.37,2013-09-08 15:31:00,
2013-09-08 11:36:00,87.8,73.2,29.89,North,11,4.6,4.6,62,0.00,CLR,,0.01,WeatherDisplay:10.37,2013-09-08 15:36:00,
2013-09-08 11:41:00,88.6,73.4,29.89,ENE,74,3.0,3.0,61,0.00,CLR,,0.01,WeatherDisplay:10.37,2013-09-08 15:41:00,
2013-09-08 11:46:00,88.9,73.7,29.89,North,349,2.3,2.3,61,0.00,CLR,,0.01,WeatherDisplay:10.37,2013-09-08 15:46:00,
2013-09-08 11:51:00,89.2,74.0,29.89,ENE,63,3.5,3.5,61,0.00,CLR,,0.01,WeatherDisplay:10.37,2013-09-08 15:51:00,
2013-09-08 11:56:00,89.5,73.3,29.89,NNW,344,4.6,4.6,59,0.00,CLR,,0.01,WeatherDisplay:10.37,2013-09-08 15:56:00,
2013-09-08 12:01:00,89.9,73.7,29.89,NNE,12,3.5,3.5,59,0.00,CLR,,0.01,WeatherDisplay:10.37,2013-09-08 16:01:00,
2013-09-08 12:06:00,90.2,73.4,29.89,ENE,76,3.5,3.5,58,0.00,CLR,,0.01,WeatherDisplay:10.37,2013-09-08 16:06:00,
2013-09-08 12:11:00,89.5,72.3,29.89,ENE,67,4.0,4.0,57,0.00,CLR,,0.01,WeatherDisplay:10.37,2013-09-08 16:11:00,
2013-09-08 12:16:00,89.2,72.5,29.89,North,10,3.5,3.5,58,0.00,CLR,,0.01,WeatherDisplay:10.37,2013-09-08 16:16:00,
2013-09-08 12:21:00,89.6,72.9,29.89,NE,45,4.6,4.6,58,0.00,CLR,,0.01,WeatherDisplay:10.37,2013-09-08 16:21:00,
2013-09-08 12:26:00,89.5,71.7,29.89,ENE,74,3.5,3.5,56,0.00,CLR,,0.01,WeatherDisplay:10.37,2013-09-08 16:26:00,
2013-09-08 12:31:00,89.2,71.5,29.88,ENE,67,5.0,5.0,56,0.00,CLR,,0.01,WeatherDisplay:10.37,2013-09-08 16:31:00,
2013-09-08 12:36:00,89.0,73.3,29.88,ENE,69,3.5,3.5,60,0.00,CLR,,0.01,WeatherDisplay:10.37,2013-09-08 16:36:00,
2013-09-08 12:41:00,88.9,71.7,29.88,NE,47,3.5,3.5,57,0.00,CLR,,0.01,WeatherDisplay:10.37,2013-09-08 16:41:00,
2013-09-08 12:46:00,89.3,71.5,29.88,ENE,63,6.9,6.9,56,0.00,CLR,,0.01,WeatherDisplay:10.37,2013-09-08 16:46:00,
2013-09-08 12:51:00,88.7,72.0,29.88,ENE,57,8.1,8.1,58,0.00,CLR,,0.01,WeatherDisplay:10.37,2013-09-08 16:51:00,
2013-09-08 12:56:00,88.4,71.7,29.88,NNE,26,5.8,5.8,58,0.00,CLR,,0.01,WeatherDisplay:10.37,2013-09-08 16:56:00,
2013-09-08 13:01:00,88.9,72.2,29.88,ENE,75,11.5,11.5,58,0.00,CLR,,0.01,WeatherDisplay:10.37,2013-09-08 17:01:00,
2013-09-08 13:06:00,88.5,71.8,29.88,NE,41,5.8,5.8,58,0.00,CLR,,0.01,WeatherDisplay:10.37,2013-09-08 17:06:00,
2013-09-08 13:11:00,88.4,72.2,29.88,ENE,61,10.4,10.4,59,0.00,CLR,,0.01,WeatherDisplay:10.37,2013-09-08 17:11:00,
2013-09-08 13:16:00,88.0,72.4,29.88,East,82,11.5,11.5,60,0.00,CLR,,0.01,WeatherDisplay:10.37,2013-09-08 17:16:00,
2013-09-08 13:21:00,87.6,73.0,29.88,NE,49,5.8,5.8,62,0.00,CLR,,0.01,WeatherDisplay:10.37,2013-09-08 17:21:00,
2013-09-08 13:26:00,88.2,72.1,29.88,NNE,22,9.2,9.2,59,0.00,CLR,,0.01,WeatherDisplay:10.37,2013-09-08 17:26:00,
2013-09-08 13:31:00,88.2,72.1,29.88,East,81,10.4,10.4,59,0.00,CLR,,0.01,WeatherDisplay:10.37,2013-09-08 17:31:00,
2013-09-08 13:36:00,87.8,73.6,29.87,NNW,328,10.4,10.4,63,0.00,CLR,,0.01,WeatherDisplay:10.37,2013-09-08 17:36:00,
2013-09-08 13:41:00,86.9,73.3,29.87,NNW,337,11.0,11.0,64,0.00,CLR,,0.01,WeatherDisplay:10.37,2013-09-08 17:41:00,
2013-09-08 13:46:00,85.8,72.7,29.88,WNW,296,8.1,8.1,65,0.00,CLR,,0.01,WeatherDisplay:10.37,2013-09-08 17:46:00,
2013-09-08 13:51:00,84.9,73.2,29.88,North,355,9.2,9.2,68,0.00,CLR,,0.01,WeatherDisplay:10.37,2013-09-08 17:51:00,
2013-09-08 13:56:00,84.0,72.7,29.87,NNW,348,10.0,10.0,69,0.00,CLR,,0.01,WeatherDisplay:10.37,2013-09-08 17:56:00,
2013-09-08 14:01:00,83.4,73.0,29.88,North,5,5.8,5.8,71,0.00,CLR,,0.01,WeatherDisplay:10.37,2013-09-08 18:01:00,
2013-09-08 14:06:00,83.1,73.1,29.87,North,5,8.0,8.0,72,0.00,CLR,,0.01,WeatherDisplay:10.37,2013-09-08 18:06:00,
2013-09-08 14:11:00,82.7,72.7,29.86,NNE,15,11.0,11.0,72,0.00,CLR,,0.01,WeatherDisplay:10.37,2013-09-08 18:11:00,
2013-09-08 14:16:00,82.7,72.7,29.86,NE,37,7.0,7.0,72,0.00,CLR,,0.01,WeatherDisplay:10.37,2013-09-08 18:16:00,
2013-09-08 14:21:00,83.2,73.6,29.86,NNW,348,4.6,4.6,73,0.00,CLR,,0.01,WeatherDisplay:10.37,2013-09-08 18:21:00,
2013-09-08 14:26:00,84.4,73.5,29.85,ESE,108,3.5,3.5,70,0.00,CLR,,0.01,WeatherDisplay:10.37,2013-09-08 18:26:00,
2013-09-08 14:31:00,85.3,74.0,29.85,East,80,4.6,4.6,69,0.00,CLR,,0.01,WeatherDisplay:10.37,2013-09-08 18:31:00,
2013-09-08 14:36:00,86.1,74.3,29.85,NE,34,3.5,3.5,68,0.00,CLR,,0.01,WeatherDisplay:10.37,2013-09-08 18:36:00,
2013-09-08 14:41:00,87.2,74.0,29.85,NE,40,3.5,3.5,65,0.00,CLR,,0.01,WeatherDisplay:10.37,2013-09-08 18:41:00,
2013-09-08 14:46:00,88.1,73.9,29.85,NE,43,3.5,3.5,63,0.00,CLR,,0.01,WeatherDisplay:10.37,2013-09-08 18:46:00,
2013-09-08 14:51:00,88.3,73.1,29.85,NE,53,4.6,4.6,61,0.00,CLR,,0.01,WeatherDisplay:10.37,2013-09-08 18:51:00,
2013-09-08 14:56:00,87.8,72.7,29.85,NE,53,6.9,6.9,61,0.00,CLR,,0.01,WeatherDisplay:10.37,2013-09-08 18:56:00,
2013-09-08 15:01:00,87.4,72.8,29.85,ENE,63,4.0,4.0,62,0.00,CLR,,0.01,WeatherDisplay:10.37,2013-09-08 19:01:00,
2013-09-08 15:06:00,87.6,72.5,29.85,ENE,74,3.5,3.5,61,0.00,CLR,,0.01,WeatherDisplay:10.37,2013-09-08 19:06:00,
2013-09-08 15:11:00,87.0,73.3,29.85,ENE,76,3.5,3.5,64,0.00,CLR,,0.01,WeatherDisplay:10.37,2013-09-08 19:11:00,
2013-09-08 15:16:00,85.9,73.2,29.85,East,82,4.6,4.6,66,0.00,CLR,,0.01,WeatherDisplay:10.37,2013-09-08 19:16:00,
2013-09-08 15:21:00,85.4,74.5,29.85,ENE,69,2.3,2.3,70,0.00,CLR,,0.01,WeatherDisplay:10.37,2013-09-08 19:21:00,
2013-09-08 15:26:00,83.4,73.4,29.86,NNE,19,21.9,21.9,72,0.06,RA,,0.07,WeatherDisplay:10.37,2013-09-08 19:26:00,
2013-09-08 15:31:00,79.4,70.4,29.86,NE,56,8.1,8.1,74,0.17,RA,,0.19,WeatherDisplay:10.37,2013-09-08 19:31:00,
2013-09-08 15:36:00,77.8,70.0,29.87,ENE,64,10.4,10.4,77,0.23,RA,,0.25,WeatherDisplay:10.37,2013-09-08 19:36:00,
2013-09-08 15:41:00,76.9,71.3,29.86,SE,126,1.2,1.2,83,0.29,RA,,0.31,WeatherDisplay:10.37,2013-09-08 19:41:00,
2013-09-08 15:46:00,76.6,72.1,29.86,WNW,299,5.0,5.0,86,0.36,RA,,0.41,WeatherDisplay:10.37,2013-09-08 19:46:00,
2013-09-08 15:51:00,76.1,71.3,29.86,ENE,59,1.2,1.2,85,0.47,RA,,0.49,WeatherDisplay:10.37,2013-09-08 19:51:00,
2013-09-08 15:56:00,76.0,72.2,29.85,SSW,200,2.3,2.3,88,0.52,RA,,0.54,WeatherDisplay:10.37,2013-09-08 19:56:00,
2013-09-08 16:01:00,75.9,73.1,29.85,South,183,5.0,5.0,91,0.58,RA,,0.59,WeatherDisplay:10.37,2013-09-08 20:01:00,
2013-09-08 16:06:00,75.7,72.9,29.85,SSW,208,5.8,5.8,91,0.59,RA,,0.60,WeatherDisplay:10.37,2013-09-08 20:06:00,
2013-09-08 16:11:00,75.7,72.6,29.85,SW,227,4.6,4.6,90,0.59,RA,,0.60,WeatherDisplay:10.37,2013-09-08 20:11:00,
2013-09-08 16:16:00,75.8,72.7,29.84,WSW,251,6.0,6.0,90,0.59,CLR,,0.60,WeatherDisplay:10.37,2013-09-08 20:16:00,
2013-09-08 16:21:00,75.8,72.7,29.84,SW,222,5.8,5.8,90,0.59,CLR,,0.60,WeatherDisplay:10.37,2013-09-08 20:21:00,
2013-09-08 16:26:00,75.7,72.2,29.83,SW,217,4.6,4.6,89,0.53,CLR,,0.60,WeatherDisplay:10.37,2013-09-08 20:26:00,
2013-09-08 16:31:00,75.7,72.6,29.83,SSW,204,3.5,3.5,90,0.42,CLR,,0.60,WeatherDisplay:10.37,2013-09-08 20:31:00,
2013-09-08 16:36:00,75.8,73.0,29.83,SSW,203,2.3,2.3,91,0.36,CLR,,0.60,WeatherDisplay:10.37,2013-09-08 20:36:00,
2013-09-08 16:41:00,75.8,72.0,29.83,South,184,6.9,6.9,88,0.30,CLR,,0.60,WeatherDisplay:10.37,2013-09-08 20:41:00,
2013-09-08 16:46:00,76.1,71.9,29.83,SSW,205,4.6,4.6,87,0.23,CLR,,0.60,WeatherDisplay:10.37,2013-09-08 20:46:00,
2013-09-08 16:51:00,76.4,72.2,29.83,SSW,202,3.5,3.5,87,0.12,CLR,,0.60,WeatherDisplay:10.37,2013-09-08 20:51:00,
2013-09-08 16:56:00,76.7,72.9,29.83,SSW,202,1.2,1.2,88,0.07,CLR,,0.60,WeatherDisplay:10.37,2013-09-08 20:56:00,
2013-09-08 17:01:00,77.1,74.3,29.84,WNW,289,3.0,3.0,91,0.02,RA,,0.61,WeatherDisplay:10.37,2013-09-08 21:01:00,
2013-09-08 17:06:00,76.8,73.6,29.84,WSW,237,4.0,4.0,90,0.16,RA,,0.76,WeatherDisplay:10.37,2013-09-08 21:06:00,
2013-09-08 17:11:00,76.6,74.1,29.84,WNW,290,3.5,3.5,92,0.20,RA,,0.80,WeatherDisplay:10.37,2013-09-08 21:11:00,
2013-09-08 17:16:00,76.7,74.5,29.83,WNW,282,1.0,1.0,93,0.22,RA,,0.83,WeatherDisplay:10.37,2013-09-08 21:16:00,
2013-09-08 17:21:00,76.9,74.7,29.83,SW,216,0.0,0.0,93,0.23,RA,,0.83,WeatherDisplay:10.37,2013-09-08 21:21:00,
2013-09-08 17:26:00,77.0,74.2,29.83,East,94,3.5,3.5,91,0.24,RA,,0.84,WeatherDisplay:10.37,2013-09-08 21:26:00,
2013-09-08 17:31:00,77.6,74.8,29.84,East,92,1.2,1.2,91,0.24,RA,,0.84,WeatherDisplay:10.37,2013-09-08 21:31:00,
2013-09-08 17:36:00,78.3,76.1,29.84,NE,38,1.2,1.2,93,0.24,CLR,,0.84,WeatherDisplay:10.37,2013-09-08 21:36:00,
2013-09-08 17:41:00,78.6,76.4,29.84,NE,38,0.0,0.0,93,0.24,CLR,,0.84,WeatherDisplay:10.37,2013-09-08 21:41:00,
2013-09-08 17:46:00,78.8,76.6,29.84,NE,38,0.0,0.0,93,0.24,CLR,,0.84,WeatherDisplay:10.37,2013-09-08 21:46:00,
2013-09-08 17:51:00,79.1,76.9,29.84,NE,38,0.0,0.0,93,0.24,CLR,,0.84,WeatherDisplay:10.37,2013-09-08 21:51:00,
2013-09-08 17:56:00,79.5,77.6,29.84,NE,38,1.2,0.0,94,0.24,CLR,,0.84,WeatherDisplay:10.37,2013-09-08 21:56:00,
2013-09-08 18:01:00,79.5,77.3,29.84,NE,36,0.0,0.0,93,0.23,CLR,,0.84,WeatherDisplay:10.37,2013-09-08 22:01:00,
2013-09-08 18:06:00,79.5,77.3,29.84,NE,36,1.0,1.0,93,0.08,CLR,,0.84,WeatherDisplay:10.37,2013-09-08 22:06:00,
2013-09-08 18:11:00,79.4,76.9,29.84,NE,36,1.2,0.0,92,0.04,CLR,,0.84,WeatherDisplay:10.37,2013-09-08 22:11:00,
2013-09-08 18:16:00,79.4,76.9,29.84,NE,36,1.2,1.2,92,0.02,CLR,,0.84,WeatherDisplay:10.37,2013-09-08 22:16:00,
2013-09-08 18:21:00,79.3,76.8,29.84,NE,36,0.0,0.0,92,0.01,CLR,,0.84,WeatherDisplay:10.37,2013-09-08 22:21:00,
2013-09-08 18:26:00,79.4,77.2,29.84,NE,36,0.0,0.0,93,0.00,CLR,,0.84,WeatherDisplay:10.37,2013-09-08 22:26:00,
2013-09-08 18:31:00,79.4,76.5,29.84,NE,36,0.0,0.0,91,0.00,CLR,,0.84,WeatherDisplay:10.37,2013-09-08 22:31:00,
2013-09-08 18:36:00,79.3,76.4,29.84,NE,36,1.0,0.0,91,0.00,CLR,,0.84,WeatherDisplay:10.37,2013-09-08 22:36:00,
2013-09-08 18:41:00,79.4,76.5,29.84,NE,50,3.0,3.0,91,0.00,CLR,,0.84,WeatherDisplay:10.37,2013-09-08 22:41:00,
2013-09-08 18:46:00,79.5,76.6,29.84,ENE,57,3.5,3.5,91,0.00,CLR,,0.84,WeatherDisplay:10.37,2013-09-08 22:46:00,
2013-09-08 18:51:00,79.5,75.6,29.84,ENE,58,4.6,4.6,88,0.00,CLR,,0.84,WeatherDisplay:10.37,2013-09-08 22:51:00,
2013-09-08 18:56:00,79.7,74.8,29.84,ENE,64,3.5,3.5,85,0.00,CLR,,0.84,WeatherDisplay:10.37,2013-09-08 22:56:00,
2013-09-08 19:01:00,80.0,75.1,29.83,ENE,62,4.6,4.6,85,0.00,CLR,,0.84,WeatherDisplay:10.37,2013-09-08 23:01:00,
2013-09-08 19:06:00,80.1,74.8,29.84,ENE,70,3.5,3.5,84,0.00,CLR,,0.84,WeatherDisplay:10.37,2013-09-08 23:06:00,
2013-09-08 19:11:00,80.1,74.8,29.84,ENE,74,2.3,2.3,84,0.00,CLR,,0.84,WeatherDisplay:10.37,2013-09-08 23:11:00,
2013-09-08 19:16:00,80.0,75.1,29.83,ENE,75,3.5,3.5,85,0.00,CLR,,0.84,WeatherDisplay:10.37,2013-09-08 23:16:00,
2013-09-08 19:21:00,79.9,75.0,29.84,ENE,74,4.0,4.0,85,0.00,CLR,,0.84,WeatherDisplay:10.37,2013-09-08 23:21:00,
2013-09-08 19:26:00,79.9,74.6,29.84,NE,43,4.6,4.6,84,0.00,CLR,,0.84,WeatherDisplay:10.37,2013-09-08 23:26:00,
2013-09-08 19:31:00,80.0,75.1,29.84,ENE,59,3.5,3.5,85,0.00,CLR,,0.84,WeatherDisplay:10.37,2013-09-08 23:31:00,
2013-09-08 19:36:00,79.9,75.3,29.84,ENE,65,2.3,2.3,86,0.00,CLR,,0.84,WeatherDisplay:10.37,2013-09-08 23:36:00,
2013-09-08 19:41:00,79.8,75.2,29.84,NE,44,3.5,3.5,86,0.00,CLR,,0.84,WeatherDisplay:10.37,2013-09-08 23:41:00,
2013-09-08 19:46:00,79.7,75.1,29.85,NE,44,0.0,0.0,86,0.00,CLR,,0.84,WeatherDisplay:10.37,2013-09-08 23:46:00,
2013-09-08 19:51:00,79.6,75.0,29.85,NE,44,2.3,2.3,86,0.00,CLR,,0.84,WeatherDisplay:10.37,2013-09-08 23:51:00,
2013-09-08 19:56:00,79.6,75.0,29.85,NE,44,0.0,0.0,86,0.00,CLR,,0.84,WeatherDisplay:10.37,2013-09-08 23:56:00,
2013-09-08 20:01:00,79.6,75.0,29.85,NE,44,1.2,0.0,86,0.00,CLR,,0.84,WeatherDisplay:10.37,2013-09-09 00:01:00,
2013-09-08 20:07:00,79.5,75.3,29.86,NE,44,0.0,0.0,87,0.00,CLR,,0.84,WeatherDisplay:10.37,2013-09-09 00:07:00,
2013-09-08 20:12:00,79.5,75.3,29.86,NE,44,0.0,0.0,87,0.00,CLR,,0.84,WeatherDisplay:10.37,2013-09-09 00:12:00,
2013-09-08 20:17:00,79.4,75.2,29.86,NE,44,1.2,1.2,87,0.00,CLR,,0.84,WeatherDisplay:10.37,2013-09-09 00:17:00,
2013-09-08 20:22:00,79.3,75.1,29.86,NE,44,1.2,1.2,87,0.00,CLR,,0.84,WeatherDisplay:10.37,2013-09-09 00:22:00,
2013-09-08 20:27:00,79.2,75.3,29.87,NE,44,1.2,1.2,88,0.00,CLR,,0.84,WeatherDisplay:10.37,2013-09-09 00:27:00,
2013-09-08 20:32:00,79.2,75.3,29.87,NE,44,0.0,0.0,88,0.00,CLR,,0.84,WeatherDisplay:10.37,2013-09-09 00:32:00,
2013-09-08 20:37:00,79.2,75.3,29.87,NE,44,0.0,0.0,88,0.00,CLR,,0.84,WeatherDisplay:10.37,2013-09-09 00:37:00,
2013-09-08 20:42:00,79.2,75.3,29.87,NE,44,2.3,2.3,88,0.00,CLR,,0.84,WeatherDisplay:10.37,2013-09-09 00:42:00,
2013-09-08 20:47:00,79.1,75.2,29.87,NE,44,0.0,0.0,88,0.00,CLR,,0.84,WeatherDisplay:10.37,2013-09-09 00:47:00,
2013-09-08 20:52:00,79.0,75.5,29.88,NE,44,0.0,0.0,89,0.00,CLR,,0.84,WeatherDisplay:10.37,2013-09-09 00:52:00,
2013-09-08 20:57:00,78.9,75.0,29.88,NE,44,0.0,0.0,88,0.00,CLR,,0.84,WeatherDisplay:10.37,2013-09-09 00:57:00,
2013-09-08 21:02:00,78.8,75.3,29.88,NE,44,0.0,0.0,89,0.00,CLR,,0.84,WeatherDisplay:10.37,2013-09-09 01:02:00,
2013-09-08 21:07:00,78.7,74.8,29.88,NE,44,1.2,1.2,88,0.00,CLR,,0.84,WeatherDisplay:10.37,2013-09-09 01:07:00,
2013-09-08 21:12:00,78.6,75.1,29.88,NE,44,0.0,0.0,89,0.00,CLR,,0.84,WeatherDisplay:10.37,2013-09-09 01:12:00,
2013-09-08 21:17:00,78.5,75.0,29.88,NE,44,0.0,0.0,89,0.00,CLR,,0.84,WeatherDisplay:10.37,2013-09-09 01:17:00,
2013-09-08 21:22:00,78.5,75.3,29.89,NE,44,0.0,0.0,90,0.00,CLR,,0.84,WeatherDisplay:10.37,2013-09-09 01:22:00,
2013-09-08 21:27:00,78.5,75.3,29.89,NE,44,0.0,0.0,90,0.00,CLR,,0.84,WeatherDisplay:10.37,2013-09-09 01:27:00,
2013-09-08 21:32:00,78.4,74.9,29.89,NE,44,0.0,0.0,89,0.00,CLR,,0.84,WeatherDisplay:10.37,2013-09-09 01:32:00,
2013-09-08 21:37:00,78.3,74.8,29.89,NE,44,1.2,0.0,89,0.00,CLR,,0.84,WeatherDisplay:10.37,2013-09-09 01:37:00,
2013-09-08 21:42:00,78.3,74.8,29.90,NE,44,0.0,0.0,89,0.00,CLR,,0.84,WeatherDisplay:10.37,2013-09-09 01:42:00,
2013-09-08 21:47:00,78.3,75.1,29.90,NE,44,0.0,0.0,90,0.00,CLR,,0.84,WeatherDisplay:10.37,2013-09-09 01:47:00,
2013-09-08 21:52:00,78.3,75.1,29.90,NE,44,0.0,0.0,90,0.00,CLR,,0.84,WeatherDisplay:10.37,2013-09-09 01:52:00,
2013-09-08 21:57:00,78.3,74.5,29.90,NE,44,0.0,0.0,88,0.00,CLR,,0.84,WeatherDisplay:10.37,2013-09-09 01:57:00,
2013-09-08 22:02:00,78.5,74.3,29.90,NE,44,0.0,0.0,87,0.00,CLR,,0.84,WeatherDisplay:10.37,2013-09-09 02:02:00,
2013-09-08 22:07:00,78.7,74.2,29.91,NE,50,2.3,2.3,86,0.00,CLR,,0.84,WeatherDisplay:10.37,2013-09-09 02:07:00,
2013-09-08 22:12:00,78.8,74.3,29.91,ENE,57,0.0,0.0,86,0.00,CLR,,0.84,WeatherDisplay:10.37,2013-09-09 02:12:00,
2013-09-08 22:17:00,78.8,75.3,29.91,ENE,57,0.0,0.0,89,0.00,CLR,,0.84,WeatherDisplay:10.37,2013-09-09 02:17:00,
2013-09-08 22:22:00,78.5,75.0,29.92,ENE,57,0.0,0.0,89,0.00,CLR,,0.84,WeatherDisplay:10.37,2013-09-09 02:22:00,
2013-09-08 22:27:00,78.4,75.2,29.92,ENE,57,0.0,0.0,90,0.00,CLR,,0.84,WeatherDisplay:10.37,2013-09-09 02:27:00,
2013-09-08 22:32:00,78.2,75.4,29.92,ENE,57,0.0,0.0,91,0.00,CLR,,0.84,WeatherDisplay:10.37,2013-09-09 02:32:00,
2013-09-08 22:37:00,77.9,75.1,29.92,ENE,57,1.2,1.2,91,0.00,CLR,,0.84,WeatherDisplay:10.37,2013-09-09 02:37:00,
2013-09-08 22:42:00,77.8,75.0,29.92,NE,46,2.3,2.3,91,0.00,CLR,,0.84,WeatherDisplay:10.37,2013-09-09 02:42:00,
2013-09-08 22:47:00,78.0,75.5,29.92,NNE,13,2.3,2.3,92,0.00,CLR,,0.84,WeatherDisplay:10.37,2013-09-09 02:47:00,
2013-09-08 22:52:00,78.1,75.9,29.92,NW,311,2.3,2.3,93,0.00,CLR,,0.84,WeatherDisplay:10.37,2013-09-09 02:52:00,
2013-09-08 22:57:00,78.2,76.0,29.92,NW,311,2.3,2.3,93,0.00,CLR,,0.84,WeatherDisplay:10.37,2013-09-09 02:57:00,
2013-09-08 23:02:00,78.1,76.2,29.92,NW,311,1.2,1.2,94,0.00,CLR,,0.84,WeatherDisplay:10.37,2013-09-09 03:02:00,
2013-09-08 23:07:00,78.1,76.2,29.92,NW,311,1.2,1.2,94,0.00,CLR,,0.84,WeatherDisplay:10.37,2013-09-09 03:07:00,
2013-09-08 23:12:00,78.1,76.2,29.92,NW,311,1.2,1.2,94,0.00,CLR,,0.84,WeatherDisplay:10.37,2013-09-09 03:12:00,
2013-09-08 23:17:00,78.0,76.5,29.92,NW,311,0.0,0.0,95,0.00,CLR,,0.84,WeatherDisplay:10.37,2013-09-09 03:17:00,
2013-09-08 23:22:00,78.0,76.5,29.92,NW,311,1.2,0.0,95,0.00,CLR,,0.84,WeatherDisplay:10.37,2013-09-09 03:22:00,
2013-09-08 23:27:00,77.9,76.4,29.92,NW,311,0.0,0.0,95,0.00,CLR,,0.84,WeatherDisplay:10.37,2013-09-09 03:27:00,
2013-09-08 23:32:00,77.6,75.4,29.92,NE,55,11.5,11.5,93,0.00,CLR,,0.84,WeatherDisplay:10.37,2013-09-09 03:32:00,
2013-09-08 23:37:00,77.3,73.1,29.92,NNE,30,6.0,6.0,87,0.00,CLR,,0.84,WeatherDisplay:10.37,2013-09-09 03:37:00,
2013-09-08 23:42:00,77.2,71.6,29.92,NE,34,9.2,9.2,83,0.00,CLR,,0.84,WeatherDisplay:10.37,2013-09-09 03:42:00,
2013-09-08 23:47:00,76.9,71.0,29.91,ENE,57,3.5,3.5,82,0.00,CLR,,0.84,WeatherDisplay:10.37,2013-09-09 03:47:00,
2013-09-08 23:52:00,76.6,70.3,29.91,NNE,19,5.8,5.8,81,0.00,CLR,,0.84,WeatherDisplay:10.37,2013-09-09 03:52:00,
2013-09-08 23:57:00,76.4,70.1,29.91,NNW,336,3.5,3.5,81,0.00,CLR,,0.84,WeatherDisplay:10.37,2013-09-09 03:57:00,